FW6569 Weather Reports


time (UTC)temp
C
wind
direction
speed
KPH
gust
KPH
rain 1hr
cm
rain 24hr
cm
rain mn
cm
humidity
%
barometer
mb
20260510123526 15 22 8.0 12.9 0.00 0.00 0.00 64 1015.4
20260510122526 15 11 11.3 16.1 0.00 0.00 0.00 65 1015.3
20260510121546 14 17 9.7 12.9 0.00 0.00 0.00 68 1015.0
20260510120526 14 6 8.0 11.3 0.00 0.00 0.00 70 1014.8
20260510115527 14 9 9.7 12.9 0.00 0.00 0.00 70 1014.5
20260510114526 13 10 9.7 11.3 0.00 0.00 0.00 72 1014.2
20260510113527 13 14 9.7 12.9 0.00 0.00 0.00 73 1013.9
20260510112526 13 26 8.0 11.3 0.00 0.00 0.00 74 1013.8
20260510111526 13 19 9.7 12.9 0.00 0.03 0.00 75 1013.6
20260510110527 13 23 9.7 12.9 0.00 0.03 0.00 77 1013.5
20260510105526 13 8 8.0 11.3 0.00 0.03 0.00 83 1013.3
20260510104547 13 33 8.0 11.3 0.00 0.03 0.00 87 1013.0
20260510103527 13 5 9.7 12.9 0.00 0.03 0.00 91 1013.1
20260510102526 13 9 6.4 11.3 0.00 0.03 0.00 93 1013.2
20260510101527 13 356 3.2 6.4 0.00 0.03 0.00 93 1013.3
20260510100547 12 356 1.6 6.4 0.00 0.03 0.00 93 1013.6
20260510095527 12 283 1.6 3.2 0.00 0.03 0.00 93 1013.7
20260510094527 12 240 4.8 9.7 0.00 0.03 0.00 94 1013.8
20260510093526 12 245 3.2 6.4 0.00 0.03 0.00 94 1013.4
20260510092527 12 0.0 0.0 0.00 0.05 0.00 93 1012.7
20260510091527 12 354 0.0 4.8 0.00 0.05 0.00 93 1012.7
20260510090526 12 0.0 0.0 0.00 0.10 0.00 92 1012.6
20260510085527 12 0.0 0.0 0.00 0.13 0.00 93 1012.4
20260510084527 12 0.0 0.0 0.00 0.13 0.00 92 1012.3
20260510083527 12 0.0 0.0 0.00 0.13 0.00 92 1012.3
20260510082527 12 0.0 0.0 0.00 0.15 0.00 91 1012.1
20260510081527 12 0.0 0.0 0.00 0.18 0.00 90 1012.0
20260510080527 12 0.0 0.0 0.00 0.23 0.00 89 1011.8
20260510075528 12 215 0.0 3.2 0.00 0.23 0.00 88 1011.8
20260510074527 13 0.0 0.0 0.00 0.25 0.00 87 1011.7
20260510073527 13 194 0.0 4.8 0.00 0.28 0.00 86 1011.6
20260510072527 13 66 1.6 3.2 0.00 0.30 0.00 86 1011.4
20260510071527 13 320 3.2 6.4 0.00 0.33 0.00 86 1011.5
20260510070547 13 279 3.2 6.4 0.00 0.36 0.00 85 1011.2
20260510065547 13 179 3.2 3.2 0.00 0.38 0.00 85 1011.1
20260510064527 13 185 3.2 3.2 0.00 0.38 0.00 85 1011.2
20260510063527 13 220 3.2 4.8 0.00 0.38 0.00 86 1011.3
20260510062547 13 193 4.8 6.4 0.00 0.38 0.00 87 1011.2
20260510061547 13 196 3.2 4.8 0.00 0.38 0.00 88 1011.3
20260510060547 12 205 3.2 4.8 0.00 0.41 0.00 89 1011.6
20260510055527 13 0.0 0.0 0.00 0.43 0.00 89 1011.6
20260510054547 12 0.0 0.0 0.00 0.43 0.00 87 1011.7
20260510053547 13 0.0 0.0 0.00 0.46 0.00 86 1011.7
20260510052527 13 0.0 0.0 0.00 0.46 0.00 86 1011.7
20260510051527 13 0.0 0.0 0.00 0.46 0.00 86 1011.7
20260510050527 13 0.0 0.0 0.00 0.46 0.00 86 1011.5
20260510045527 13 0.0 0.0 0.00 0.46 0.00 85 1011.4
20260510044548 13 0.0 0.0 0.00 0.46 0.00 85 1011.4
20260510043527 13 212 1.6 3.2 0.00 0.46 0.00 86 1011.5
20260510042527 13 225 1.6 3.2 0.00 0.46 0.00 87 1011.5
20260510041548 13 0.0 0.0 0.00 0.46 0.00 85 1011.5
20260510040527 13 223 0.0 3.2 0.00 0.48 0.00 86 1011.6
20260510035527 13 0.0 0.0 0.00 0.48 0.48 87 1011.6
20260510034527 13 196 0.0 1.6 0.00 0.48 0.48 87 1011.6
20260510033527 13 0.0 0.0 0.00 0.48 0.48 85 1011.5
20260510032528 13 0.0 0.0 0.00 0.51 0.48 84 1011.5
20260510031527 13 272 0.0 3.2 0.00 0.51 0.48 85 1011.5
20260510030527 14 0.0 0.0 0.00 0.53 0.48 83 1011.5
20260510025548 14 211 1.6 3.2 0.00 0.53 0.48 83 1011.4
20260510024527 14 0.0 0.0 0.00 0.56 0.48 81 1011.3
20260510023548 14 0.0 0.0 0.00 0.56 0.48 79 1011.2
20260510022527 15 0.0 0.0 0.00 0.58 0.48 78 1011.0
20260510021527 15 0.0 0.0 0.00 0.61 0.48 78 1010.9
20260510020528 15 0.0 0.0 0.00 0.61 0.48 74 1010.8
20260510015528 15 0.0 0.0 0.00 0.61 0.48 74 1010.7
20260510014527 16 0.0 0.0 0.00 0.61 0.48 71 1010.6
20260510013528 16 0.0 0.0 0.00 0.61 0.48 71 1010.4
20260510012527 17 221 0.0 3.2 0.00 0.61 0.48 69 1010.2
20260510011528 17 0.0 0.0 0.00 0.61 0.48 66 1010.0
20260510010528 17 0.0 0.0 0.00 0.61 0.48 65 1009.9
20260510005527 18 0.0 0.0 0.00 0.61 0.48 62 1009.8
20260510004528 19 227 0.0 3.2 0.00 0.61 0.48 61 1009.7
20260510003528 20 234 1.6 4.8 0.00 0.61 0.48 57 1009.5
20260510002528 20 227 3.2 9.7 0.00 0.61 0.48 55 1009.3
20260510001548 21 224 4.8 9.7 0.00 0.61 0.48 53 1009.1
20260510000528 21 249 6.4 11.3 0.00 0.61 0.48 52 1008.9
20260509235528 22 224 8.0 12.9 0.00 0.61 0.48 50 1008.9
20260509234528 22 242 9.7 16.1 0.00 0.61 0.48 48 1008.8
20260509233528 22 252 8.0 16.1 0.00 0.61 0.48 47 1008.6
20260509232528 23 238 8.0 20.9 0.00 0.61 0.48 47 1008.5
20260509231528 23 220 8.0 14.5 0.00 0.61 0.48 48 1008.4
20260509230528 23 236 8.0 16.1 0.00 0.61 0.48 47 1008.3
20260509225608 23 229 11.3 16.1 0.00 0.61 0.48 49 1008.3
20260509224528 23 243 12.9 20.9 0.00 0.61 0.48 48 1008.3
20260509223528 24 213 11.3 22.5 0.00 0.61 0.48 47 1008.3
20260509222528 24 221 11.3 22.5 0.00 0.61 0.48 46 1008.3
20260509221528 24 275 11.3 17.7 0.00 0.61 0.48 45 1008.4
20260509220528 24 228 12.9 19.3 0.00 0.61 0.48 45 1008.4
20260509215528 24 217 16.1 25.7 0.00 0.61 0.48 46 1008.5
20260509214528 24 219 14.5 24.1 0.00 0.61 0.48 45 1008.3
20260509213528 24 223 14.5 20.9 0.00 0.61 0.48 47 1008.4
20260509212529 23 241 12.9 17.7 0.00 0.61 0.48 52 1008.5
20260509211528 23 211 16.1 25.7 0.00 0.61 0.48 51 1008.5
20260509210528 23 204 17.7 27.4 0.00 0.61 0.48 52 1008.5
20260509205528 23 204 17.7 27.4 0.00 0.61 0.48 52 1008.5
20260509204529 23 208 16.1 22.5 0.00 0.61 0.48 52 1008.5
20260509203529 23 209 17.7 24.1 0.00 0.61 0.48 52 1008.7
20260509202608 23 221 12.9 20.9 0.00 0.61 0.48 55 1008.6
20260509201528 23 213 12.9 20.9 0.00 0.61 0.48 54 1008.7
20260509200529 23 210 14.5 17.7 0.00 0.61 0.48 54 1008.9
20260509195528 23 206 16.1 24.1 0.00 0.61 0.48 56 1009.1
20260509194529 22 218 17.7 27.4 0.00 0.61 0.48 56 1009.1
20260509193528 22 217 14.5 22.5 0.00 0.61 0.48 58 1009.1
20260509192528 22 208 14.5 22.5 0.00 0.61 0.48 58 1009.1
20260509191528 22 197 14.5 22.5 0.00 0.61 0.48 60 1009.2
20260509190528 22 208 17.7 22.5 0.00 0.61 0.48 60 1009.3
20260509185528 22 219 14.5 25.7 0.00 0.61 0.48 61 1009.4
20260509184529 22 198 16.1 20.9 0.00 0.61 0.48 61 1009.5
20260509183528 21 226 11.3 16.1 0.00 0.61 0.48 62 1009.4
20260509182519 21 218 12.9 22.5 0.00 0.61 0.48 61 1009.5
20260509181518 21 213 14.5 19.3 0.00 0.61 0.48 62 1009.5
20260509180518 21 235 9.7 16.1 0.00 0.61 0.48 63 1009.6
20260509175519 21 214 11.3 17.7 0.00 0.61 0.48 63 1009.7
20260509174518 20 212 14.5 22.5 0.00 0.61 0.48 65 1009.7
20260509173519 21 234 11.3 16.1 0.00 0.61 0.48 65 1009.9
20260509172519 21 236 8.0 16.1 0.00 0.61 0.48 64 1009.8
20260509171519 21 220 11.3 14.5 0.00 0.61 0.48 66 1009.8
20260509170519 20 217 11.3 19.3 0.00 0.61 0.48 67 1009.8
20260509165519 19 206 12.9 20.9 0.00 0.61 0.48 69 1009.9
20260509164519 19 211 11.3 17.7 0.00 0.61 0.48 68 1009.8
20260509163519 19 226 12.9 20.9 0.00 0.61 0.48 68 1009.8
20260509162539 19 219 11.3 22.5 0.00 0.61 0.48 70 1009.9
20260509161519 18 225 11.3 19.3 0.00 0.61 0.48 73 1009.9
20260509160519 17 209 12.9 17.7 0.00 0.61 0.48 75 1010.0
20260509155518 18 217 14.5 22.5 0.00 0.61 0.48 74 1009.9
20260509154519 18 200 14.5 22.5 0.00 0.61 0.48 73 1009.7
20260509153519 18 241 11.3 19.3 0.00 0.61 0.48 74 1009.6
20260509152519 17 225 12.9 17.7 0.00 0.61 0.48 75 1009.7
20260509151519 17 244 8.0 14.5 0.00 0.61 0.48 75 1009.7
20260509150519 17 214 11.3 16.1 0.00 0.61 0.48 78 1009.6
20260509145519 17 191 12.9 17.7 0.00 0.61 0.48 78 1009.5
20260509144519 17 206 14.5 20.9 0.00 0.61 0.48 78 1009.5
20260509143519 17 207 12.9 16.1 0.00 0.61 0.48 79 1009.5
20260509142519 17 189 11.3 14.5 0.00 0.61 0.48 79 1009.4
20260509141519 17 204 9.7 14.5 0.00 0.61 0.48 81 1009.3
20260509140519 16 175 11.3 16.1 0.00 0.61 0.48 82 1009.3
20260509135519 16 197 9.7 14.5 0.00 0.61 0.48 84 1009.4
20260509134540 16 215 9.7 14.5 0.00 0.61 0.48 86 1009.3
20260509133519 16 215 11.3 14.5 0.00 0.61 0.48 85 1009.2
20260509132519 16 205 8.0 11.3 0.00 0.61 0.48 87 1009.2
20260509131520 15 194 9.7 14.5 0.00 0.61 0.48 89 1009.3
20260509130519 15 203 9.7 14.5 0.00 0.61 0.48 89 1009.3
20260509125520 14 188 6.4 8.0 0.00 0.61 0.48 92 1009.2
20260509124519 13 194 6.4 9.7 0.00 0.61 0.48 94 1009.2